TimeCST,TemperatureF,Dew PointF,Humidity,Sea Level PressureIn,VisibilityMPH,Wind Direction,Wind SpeedMPH,Gust SpeedMPH,PrecipitationIn,Events,Conditions,WindDirDegrees,DateUTC
12:15 AM,13.8,8.2,78,30.13,10.0,SW,4.6,-,N/A,,Clear,220,2013-12-13 06:15:00
12:35 AM,13.8,8.6,80,30.13,10.0,Calm,Calm,-,N/A,,Scattered Clouds,0,2013-12-13 06:35:00
12:55 AM,13.6,8.6,80,30.12,10.0,Calm,Calm,-,N/A,,Clear,0,2013-12-13 06:55:00
1:15 AM,12.9,7.9,80,30.12,10.0,Calm,Calm,-,N/A,,Scattered Clouds,0,2013-12-13 07:15:00
1:35 AM,12.9,8.8,84,30.12,10.0,Calm,Calm,-,N/A,,Overcast,0,2013-12-13 07:35:00
1:55 AM,14.0,10.0,84,30.12,10.0,Calm,Calm,-,N/A,,Overcast,0,2013-12-13 07:55:00
2:15 AM,14.9,10.4,82,30.13,10.0,Calm,Calm,-,N/A,,Overcast,0,2013-12-13 08:15:00
2:35 AM,15.4,10.8,82,30.12,10.0,Calm,Calm,-,N/A,,Overcast,0,2013-12-13 08:35:00
2:55 AM,15.4,10.4,80,30.12,10.0,Calm,Calm,-,N/A,,Overcast,0,2013-12-13 08:55:00
3:15 AM,15.8,10.8,80,30.10,10.0,Calm,Calm,-,N/A,,Overcast,0,2013-12-13 09:15:00
3:35 AM,15.8,10.9,81,30.09,10.0,NNE,3.5,-,N/A,,Overcast,30,2013-12-13 09:35:00
3:55 AM,16.0,10.8,80,30.11,10.0,Calm,Calm,-,N/A,,Overcast,0,2013-12-13 09:55:00
4:15 AM,15.8,10.9,81,30.11,10.0,Calm,Calm,-,N/A,,Overcast,0,2013-12-13 10:15:00
4:35 AM,16.3,11.5,81,30.11,10.0,Calm,Calm,-,N/A,,Overcast,0,2013-12-13 10:35:00
4:55 AM,16.2,11.3,81,30.12,10.0,Calm,Calm,-,N/A,,Overcast,0,2013-12-13 10:55:00
5:15 AM,15.8,11.1,82,30.13,10.0,Calm,Calm,-,N/A,,Overcast,0,2013-12-13 11:15:00
5:35 AM,15.8,11.3,82,30.12,10.0,Calm,Calm,-,N/A,,Overcast,0,2013-12-13 11:35:00
5:55 AM,16.2,11.3,81,30.11,10.0,ENE,3.5,-,N/A,,Overcast,60,2013-12-13 11:55:00
6:15 AM,16.5,11.3,80,30.13,10.0,Calm,Calm,-,N/A,,Overcast,0,2013-12-13 12:15:00
6:35 AM,16.3,11.3,81,30.14,10.0,Calm,Calm,-,N/A,,Overcast,0,2013-12-13 12:35:00
6:55 AM,16.5,11.5,81,30.14,10.0,Calm,Calm,-,N/A,,Overcast,0,2013-12-13 12:55:00
7:15 AM,16.3,11.3,81,30.14,10.0,ENE,3.5,-,N/A,,Overcast,70,2013-12-13 13:15:00
7:35 AM,16.7,11.3,79,30.14,10.0,Calm,Calm,-,N/A,,Overcast,0,2013-12-13 13:35:00
7:55 AM,16.5,11.3,80,30.14,10.0,Calm,Calm,-,N/A,,Mostly Cloudy,0,2013-12-13 13:55:00
8:15 AM,16.7,11.7,81,30.14,10.0,ENE,4.6,-,N/A,,Mostly Cloudy,60,2013-12-13 14:15:00
8:35 AM,17.1,11.8,80,30.16,10.0,East,5.8,-,N/A,,Overcast,80,2013-12-13 14:35:00
8:55 AM,17.4,12.0,79,30.16,10.0,ENE,5.8,-,N/A,,Overcast,60,2013-12-13 14:55:00
9:15 AM,17.6,11.5,77,30.16,10.0,East,5.8,-,N/A,,Mostly Cloudy,80,2013-12-13 15:15:00
9:35 AM,18.3,11.7,75,30.16,10.0,ENE,4.6,-,N/A,,Scattered Clouds,70,2013-12-13 15:35:00
9:55 AM,19.4,11.1,70,30.16,10.0,ENE,10.4,-,N/A,,Clear,70,2013-12-13 15:55:00
10:15 AM,19.9,11.5,70,30.16,10.0,East,6.9,-,N/A,,Clear,100,2013-12-13 16:15:00
10:35 AM,20.8,12.0,69,30.16,10.0,East,10.4,-,N/A,,Mostly Cloudy,100,2013-12-13 16:35:00
10:55 AM,20.5,11.3,68,30.16,10.0,ENE,8.1,-,N/A,,Mostly Cloudy,70,2013-12-13 16:55:00
11:15 AM,20.3,11.1,68,30.16,10.0,NE,10.4,-,N/A,,Overcast,50,2013-12-13 17:15:00
11:35 AM,19.9,10.9,68,30.14,10.0,ENE,12.7,-,N/A,,Overcast,60,2013-12-13 17:35:00
11:55 AM,20.1,10.4,66,30.14,10.0,ENE,9.2,-,N/A,,Scattered Clouds,60,2013-12-13 17:55:00
12:15 PM,20.1,10.4,66,30.14,10.0,NE,9.2,-,N/A,,Clear,50,2013-12-13 18:15:00
12:35 PM,21.0,10.8,65,30.13,10.0,ENE,11.5,17.3,N/A,,Scattered Clouds,70,2013-12-13 18:35:00
12:55 PM,21.9,10.9,63,30.12,10.0,East,12.7,16.1,N/A,,Mostly Cloudy,80,2013-12-13 18:55:00
1:15 PM,21.0,10.4,64,30.13,10.0,NE,10.4,-,N/A,,Scattered Clouds,50,2013-12-13 19:15:00
1:35 PM,21.0,10.9,65,30.13,10.0,ENE,9.2,-,N/A,,Scattered Clouds,70,2013-12-13 19:35:00
1:55 PM,21.0,11.5,67,30.12,10.0,ENE,9.2,-,N/A,,Mostly Cloudy,70,2013-12-13 19:55:00
2:15 PM,20.8,11.1,66,30.13,10.0,ENE,8.1,-,N/A,,Overcast,60,2013-12-13 20:15:00
2:35 PM,20.7,11.5,68,30.13,10.0,East,9.2,-,N/A,,Overcast,80,2013-12-13 20:35:00
2:55 PM,20.3,11.7,69,30.13,10.0,ENE,9.2,-,N/A,,Overcast,60,2013-12-13 20:55:00
3:15 PM,20.1,11.8,70,30.14,10.0,NE,11.5,-,N/A,,Overcast,50,2013-12-13 21:15:00
3:35 PM,19.4,11.7,72,30.14,10.0,ENE,11.5,-,N/A,,Overcast,60,2013-12-13 21:35:00
3:55 PM,18.9,11.7,74,30.14,10.0,ENE,9.2,-,N/A,,Overcast,60,2013-12-13 21:55:00
4:15 PM,18.5,11.3,73,30.14,10.0,ENE,9.2,16.1,N/A,,Overcast,70,2013-12-13 22:15:00
4:35 PM,18.3,11.3,74,30.14,10.0,ENE,13.8,-,N/A,,Overcast,60,2013-12-13 22:35:00
4:55 PM,17.4,11.1,76,30.15,10.0,ENE,12.7,18.4,N/A,,Overcast,70,2013-12-13 22:55:00
5:15 PM,16.5,10.4,77,30.16,10.0,NE,15.0,-,N/A,,Overcast,50,2013-12-13 23:15:00
5:35 PM,15.6,9.1,76,30.16,10.0,ENE,11.5,-,N/A,,Overcast,60,2013-12-13 23:35:00
5:55 PM,15.4,8.6,74,30.16,10.0,ENE,12.7,17.3,N/A,,Overcast,70,2013-12-13 23:55:00
6:15 PM,15.1,7.9,73,30.17,10.0,NE,11.5,18.4,N/A,,Overcast,50,2013-12-14 00:15:00
6:35 PM,14.9,7.7,73,30.17,10.0,NE,15.0,19.6,N/A,,Overcast,50,2013-12-14 00:35:00
6:55 PM,14.7,7.3,73,30.18,10.0,NE,13.8,-,N/A,,Overcast,50,2013-12-14 00:55:00
7:15 PM,14.5,7.2,73,30.20,10.0,ENE,10.4,19.6,N/A,,Overcast,60,2013-12-14 01:15:00
7:35 PM,14.5,7.3,73,30.19,10.0,NE,16.1,21.9,N/A,,Overcast,50,2013-12-14 01:35:00
7:55 PM,14.4,7.3,74,30.20,10.0,ENE,12.7,20.7,N/A,,Overcast,60,2013-12-14 01:55:00
8:15 PM,14.5,7.3,73,30.20,10.0,ENE,13.8,20.7,N/A,,Overcast,60,2013-12-14 02:15:00
8:35 PM,14.5,7.3,73,30.20,10.0,NE,10.4,-,N/A,,Overcast,50,2013-12-14 02:35:00
8:55 PM,14.4,7.0,73,30.20,10.0,NE,12.7,17.3,N/A,,Overcast,50,2013-12-14 02:55:00
9:15 PM,14.2,6.8,73,30.20,10.0,NE,11.5,17.3,N/A,,Overcast,50,2013-12-14 03:15:00
9:35 PM,14.0,7.0,74,30.20,10.0,NE,9.2,16.1,N/A,,Overcast,40,2013-12-14 03:35:00
9:55 PM,14.4,7.2,73,30.20,10.0,NE,12.7,18.4,N/A,,Overcast,50,2013-12-14 03:55:00
10:15 PM,14.4,7.3,74,30.19,10.0,ENE,12.7,18.4,N/A,,Overcast,60,2013-12-14 04:15:00
10:35 PM,14.4,7.7,75,30.19,10.0,ENE,13.8,18.4,N/A,,Overcast,60,2013-12-14 04:35:00
10:55 PM,14.5,7.7,74,30.19,10.0,ENE,12.7,-,N/A,,Overcast,60,2013-12-14 04:55:00
11:15 PM,14.5,7.7,74,30.19,10.0,NE,12.7,17.3,N/A,,Overcast,50,2013-12-14 05:15:00
11:35 PM,14.5,7.7,74,30.19,10.0,NE,12.7,17.3,N/A,,Overcast,50,2013-12-14 05:35:00
11:55 PM,14.7,7.7,74,30.19,10.0,NE,10.4,17.3,N/A,,Overcast,40,2013-12-14 05:55:00